Location: Castro Valley
(37.6940°N, 122.0850°W)
Time: 13:49:57
(UTC-08:00)

Hubble Space Telescope - Visible Passes

Search period start: 19 February 2020 00:00
Search period end: 29 February 2020 00:00
Orbit: 536 x 540 km, 28.5° (Epoch: 19 February)

Date Brightness Start Highest point End Pass type
(mag) Time Alt. Az. Time Alt. Az. Time Alt. Az.
19 Feb 3.1 19:04:37 10° S 19:06:04 12° SSE 19:07:06 11° SE visible
20 Feb 3.0 18:53:12 10° SSW 18:55:19 14° SSE 18:57:12 11° SE visible
21 Feb 2.9 18:42:03 10° SSW 18:44:34 16° SSE 18:47:04 10° SE visible
21 Feb 3.5 20:21:53 10° SW 20:22:37 13° SW 20:22:37 13° SW visible
22 Feb 2.8 18:31:02 10° SSW 18:33:49 17° SSE 18:36:36 10° SE visible
22 Feb 3.1 20:11:10 10° SW 20:12:40 17° SW 20:12:40 17° SW visible
23 Feb 2.7 18:20:07 10° SW 18:23:05 19° S 18:26:04 10° SE visible
23 Feb 2.8 20:00:29 10° SW 20:02:43 20° SSW 20:02:43 20° SSW visible
24 Feb 2.6 19:49:49 10° SW 19:52:46 21° S 19:52:46 21° S visible
25 Feb 2.6 19:39:13 10° SW 19:42:16 20° S 19:42:49 19° S visible
26 Feb 2.8 19:28:39 10° SW 19:31:32 18° S 19:32:55 16° SSE visible
27 Feb 3.0 19:18:08 10° SW 19:20:47 17° SSW 19:23:02 11° SSE visible
28 Feb 3.2 19:07:44 10° SW 19:10:02 15° SSW 19:12:21 10° SSE visible
